{"data":{"norad_id":59395,"intl_designator":"2024-063A","name":"YAOGAN-42 01","alt_names":[],"object_type":"PAYLOAD","status":"ACTIVE","operator":null,"country":"PRC","launch_date":"2024-04-02","launch_site_code":"XICLF","launch_vehicle":null,"mission":null,"orbit_class":"UNKNOWN","rcs_meters":null,"size_class":null,"mass_kg":null,"dimensions":null,"purposes":[],"wikipedia_slug":null,"has_3d_model":false,"image_url":null,"decayed_at":null,"tle_current":{"epoch":"2026-05-24T19:47:31.523424Z","epoch_age_seconds":84227,"freshness":"FRESH","line1":"1 59395U 24063A   26144.82467041  .00008527  00000+0  35456-3 0  9992","line2":"2 59395  34.9985 272.7695 0003050 113.4686 246.6349 15.23048699119288","mean_motion":15.23048699,"eccentricity":0.000305,"inclination_deg":34.9985,"raan_deg":272.7695,"arg_perigee_deg":113.4686,"mean_anomaly_deg":246.6349,"bstar":0.00035456,"rev_number":11928,"period_min":94.54720659592,"perigee_km":494.5542597951,"apogee_km":498.74788051789,"semimajor_km":6874.7880701565,"source":"CELESTRAK","updated_at":"2026-05-25T13:38:01.389663Z"}}}